Stations météo

réclame
Mon MeteoGroup
Le Talut, France (7207): Température de l'air & dewpoint: 17.09.2018 03:00:00 - 23.09.2018 03:00:00 (CEST)Le Talut, France (7207): Vitesse du vent & gusts: 17.09.2018 03:00:00 - 23.09.2018 03:00:00 (CEST)Le Talut, France (7207): Direction du vent: 17.09.2018 03:00:00 - 23.09.2018 03:00:00 (CEST)Le Talut, France (7207): reduced air pressure: 17.09.2018 03:00:00 - 23.09.2018 03:00:00 (CEST)Le Talut, France (7207): visibility: 17.09.2018 03:00:00 - 23.09.2018 03:00:00 (CEST)Le Talut, France (7207): Quantités de précipitations: 17.09.2018 03:00:00 - 23.09.2018 03:00:00 (CEST)
Date & Time tt [°C] td [°C] ff [km/h] ff [knt] fx [km/h] fx [knt] dd ppp [hPa] vv [km] rr [mm]
23.09.2018 03:00:00 17,9 17,6 33 18 49 27 W 1019,3 - 0,0
23.09.2018 02:00:00 18,1 17,6 36 19 54 29 WSW 1019,3 - 0,0
23.09.2018 01:00:00 18,1 17,6 34 19 54 29 WSW 1019,2 - 0,0
23.09.2018 00:00:00 17,9 17,4 33 18 51 28 WSW 1019,3 - 0,0
22.09.2018 23:00:00 17,8 17,3 30 16 50 27 WSW 1019,2 - 0,0
22.09.2018 22:00:00 18,0 17,5 37 20 57 31 WSW 1019,1 - 0,0
22.09.2018 21:00:00 17,9 17,6 34 18 49 26 WSW 1018,8 - 0,0
22.09.2018 20:00:00 18,0 17,5 36 19 53 29 WSW 1018,7 2,0 0,0
22.09.2018 19:00:00 18,1 17,3 28 15 51 28 WSW 1018,3 - 0,0
22.09.2018 18:00:00 18,4 17,2 31 17 58 31 WSW 1018,1 - 0,0
22.09.2018 17:00:00 18,4 17,4 40 22 64 34 SW 1018,4 3,0 0,0
22.09.2018 16:00:00 18,4 17,4 47 26 68 37 SW 1018,3 - 0,2
22.09.2018 15:00:00 18,2 17,2 39 21 58 31 SW 1018,6 - 0,0
22.09.2018 14:00:00 17,0 16,2 35 19 49 27 S 1019,6 3,0 1,2
22.09.2018 13:00:00 16,2 14,9 39 21 58 31 S 1020,4 - 0,6
22.09.2018 12:00:00 17,2 12,7 31 17 52 28 S 1021,0 - 0,0
22.09.2018 11:00:00 17,1 12,4 30 16 40 22 S 1021,2 15 0,0
22.09.2018 10:00:00 16,4 11,3 25 13 36 19 S 1021,7 - 0,0
22.09.2018 09:00:00 16,0 11,2 23 13 32 17 S 1021,6 - 0,0
22.09.2018 08:00:00 15,4 12,3 19 10 28 15 SE 1022,1 - 0,0
22.09.2018 07:00:00 15,5 10,7 11 6 15 8 S 1022,9 - 0,0
22.09.2018 06:00:00 15,3 9,6 5 3 15 8 S 1023,2 - 0,0
22.09.2018 05:00:00 14,8 10,6 10 5 13 7 S 1023,7 - 0,0
22.09.2018 04:00:00 13,7 10,1 5 3 11 6 E 1023,8 - 0,0
22.09.2018 03:00:00 13,9 9,9 5 3 8 4 SE 1024,0 - 0,0
22.09.2018 02:00:00 13,6 8,0 4 2 10 6 W 1024,3 - 0,0
22.09.2018 01:00:00 14,2 8,4 6 4 18 10 NW 1024,9 - 0,0
22.09.2018 00:00:00 14,5 9,1 7 4 16 9 WNW 1024,8 - 0,0
21.09.2018 23:00:00 14,3 9,1 9 5 19 10 NW 1024,6 - 0,0
21.09.2018 22:00:00 14,6 9,2 9 5 19 10 NW 1024,3 - 0,0
21.09.2018 21:00:00 14,9 9,3 10 6 32 17 WNW 1023,6 - 0,0
21.09.2018 20:00:00 15,3 8,5 19 10 32 17 W 1023,3 20 0,0
21.09.2018 19:00:00 15,9 8,9 12 7 32 17 WNW 1022,6 - 0,0
21.09.2018 18:00:00 16,1 8,3 16 9 34 18 W 1022,4 - 0,0
21.09.2018 17:00:00 16,9 7,8 21 11 39 21 W 1022,2 20 0,0
21.09.2018 16:00:00 16,5 8,7 18 10 36 19 W 1021,9 - 0,0
21.09.2018 15:00:00 17,0 8,7 20 11 41 22 W 1021,6 - 0,0
21.09.2018 14:00:00 16,5 9,2 13 7 31 17 WNW 1020,8 - 0,0
21.09.2018 13:00:00 16,4 9,6 15 8 31 17 WNW 1020,2 - 0,0
21.09.2018 12:00:00 16,2 8,4 16 9 33 18 NW 1019,6 - 0,0
21.09.2018 11:00:00 15,1 8,6 22 12 39 21 NW 1018,7 15 0,0
21.09.2018 10:00:00 14,9 9,5 24 13 47 25 NW 1017,4 - 0,0
21.09.2018 09:00:00 14,9 10,1 22 12 45 25 NW 1016,1 - 0,0
21.09.2018 08:00:00 15,2 9,8 26 14 49 26 WNW 1015,0 12 0,0
21.09.2018 07:00:00 15,5 10,3 26 14 48 26 WNW 1013,9 - 0,0
21.09.2018 06:00:00 15,8 11,8 25 14 49 26 WNW 1013,0 - 0,0
21.09.2018 05:00:00 15,9 13,9 22 12 44 24 WNW 1012,2 - 0,2
21.09.2018 04:00:00 14,7 13,7 31 17 92 50 NW 1011,6 - 3,7
21.09.2018 03:00:00 18,2 17,4 48 26 73 39 SW 1010,2 - 2,2
21.09.2018 02:00:00 18,4 17,2 45 24 70 38 SW 1010,5 - 0,2
21.09.2018 01:00:00 18,6 16,9 39 21 69 38 SW 1011,1 - 0,0
21.09.2018 00:00:00 18,6 16,9 34 18 61 33 SW 1011,7 - 0,0
20.09.2018 23:00:00 18,4 16,7 36 20 55 30 SW 1012,4 - 0,0
20.09.2018 22:00:00 18,5 16,8 33 18 53 29 SW 1013,2 - 0,0
20.09.2018 21:00:00 18,4 17,1 31 17 51 28 SW 1013,6 - 0,0
20.09.2018 20:00:00 18,6 16,9 35 19 46 25 SSW 1013,8 - 0,0
20.09.2018 19:00:00 18,8 16,8 29 16 36 19 SSW 1014,6 - 0,0
20.09.2018 18:00:00 19,0 16,6 24 13 36 19 SW 1015,3 - 0,0
20.09.2018 17:00:00 19,6 16,8 24 13 36 19 SSW 1016,0 15 0,0
20.09.2018 16:00:00 19,9 16,5 28 15 36 19 SSW 1016,6 - 0,0
20.09.2018 15:00:00 19,9 16,5 25 14 39 21 SW 1017,0 - 0,0
20.09.2018 14:00:00 19,9 16,9 25 14 32 17 SSW 1017,4 15 0,0
20.09.2018 13:00:00 20,5 16,5 23 12 33 18 SSW 1017,9 - 0,0
20.09.2018 12:00:00 19,8 16,6 25 14 32 17 SSW 1018,3 - 0,0
20.09.2018 11:00:00 18,6 17,1 28 15 34 18 SSW 1018,7 - 0,0
20.09.2018 10:00:00 18,3 17,1 29 15 34 18 SSW 1018,5 - 0,0
20.09.2018 09:00:00 17,9 16,9 20 11 30 16 SSW 1018,5 - 0,0
20.09.2018 08:00:00 17,8 17,0 21 11 30 16 SW 1018,6 - 0,0
20.09.2018 07:00:00 17,8 17,0 25 14 32 17 SW 1018,7 - 0,2
20.09.2018 06:00:00 17,8 16,8 22 12 34 18 SW 1019,0 - 0,0
20.09.2018 05:00:00 17,9 16,9 23 12 33 18 SW 1019,3 - 0,0
20.09.2018 04:00:00 17,7 16,9 27 14 36 20 SW 1019,6 - 0,0
20.09.2018 03:00:00 17,7 16,9 24 13 32 17 SW 1019,7 - 0,0
20.09.2018 02:00:00 17,8 17,2 22 12 32 17 SW 1019,9 - 0,0
20.09.2018 01:00:00 17,8 17,2 23 12 31 17 SW 1020,2 - 0,0
20.09.2018 00:00:00 17,7 16,9 21 12 31 17 SW 1020,6 - 0,0
19.09.2018 23:00:00 17,7 16,9 18 10 25 14 SW 1020,6 - 0,0
19.09.2018 22:00:00 17,7 16,9 16 9 24 13 SSW 1020,6 - 0,0
19.09.2018 21:00:00 17,9 16,9 15 8 24 13 WSW 1020,4 - 0,0
19.09.2018 20:00:00 18,0 16,7 17 9 27 15 SW 1020,2 10 0,0
19.09.2018 19:00:00 18,9 17,0 16 9 32 17 WSW 1020,2 - 0,0
19.09.2018 18:00:00 19,2 17,0 24 13 32 17 SW 1020,3 - 0,0
19.09.2018 17:00:00 20,0 17,0 24 13 32 17 SW 1020,3 - 0,0
19.09.2018 16:00:00 19,6 17,0 22 12 29 16 SW 1020,6 - 0,0
19.09.2018 15:00:00 20,5 17,1 23 12 29 16 SSW 1020,3 - 0,0
19.09.2018 14:00:00 20,0 16,8 22 12 30 16 SW 1020,5 15 0,0
19.09.2018 13:00:00 19,8 16,8 21 12 34 18 SW 1020,4 - 0,0
19.09.2018 12:00:00 19,0 16,8 26 14 33 18 SW 1019,9 - 0,0
19.09.2018 11:00:00 18,6 16,7 27 15 34 18 SW 1019,9 10 0,0
19.09.2018 10:00:00 18,1 16,8 20 11 30 16 SW 1019,2 - 0,0
19.09.2018 09:00:00 17,6 16,6 21 12 27 15 SW 1018,4 - 0,0
19.09.2018 08:00:00 17,3 16,5 21 12 29 16 SW 1017,8 12 0,0
19.09.2018 07:00:00 17,1 16,3 19 10 24 13 SW 1017,6 - 0,0
19.09.2018 06:00:00 17,2 16,4 16 9 26 14 SW 1017,8 - 0,2
19.09.2018 05:00:00 17,2 16,2 18 10 24 13 SW 1017,8 - 0,0
19.09.2018 04:00:00 17,5 16,4 20 11 29 15 SW 1017,8 - 0,0
19.09.2018 03:00:00 17,4 16,3 18 10 29 16 SW 1018,0 - 0,0
19.09.2018 02:00:00 17,7 16,6 20 11 29 16 SW 1018,1 - 0,0
19.09.2018 01:00:00 17,6 16,5 22 12 28 15 SW 1017,9 - 0,0
19.09.2018 00:00:00 17,5 16,4 16 9 26 14 SW 1017,6 - 0,0
18.09.2018 23:00:00 17,7 16,6 16 9 22 12 SW 1017,8 - 0,0
18.09.2018 22:00:00 17,8 16,7 16 9 23 12 SW 1017,7 - 0,0
18.09.2018 21:00:00 17,8 16,7 14 8 19 11 SW 1017,2 - 0,0
18.09.2018 20:00:00 18,3 16,6 14 7 20 11 SSW 1016,7 - 0,0
18.09.2018 19:00:00 19,3 16,9 16 8 18 10 SSW 1016,8 - 0,0
18.09.2018 18:00:00 20,0 16,6 15 8 19 10 S 1016,5 - 0,0
18.09.2018 17:00:00 20,7 16,7 14 7 18 10 S 1016,4 6 0,0
18.09.2018 16:00:00 21,1 16,3 11 6 16 9 S 1016,4 - 0,0
18.09.2018 15:00:00 20,5 16,3 11 6 18 10 SSW 1016,8 - 0,0
18.09.2018 14:00:00 20,4 16,2 12 7 23 12 WSW 1016,8 8 0,0
18.09.2018 13:00:00 19,6 15,9 16 9 23 12 WSW 1016,7 - 0,0
18.09.2018 12:00:00 19,3 16,1 14 8 20 11 WSW 1016,4 - 0,0
18.09.2018 11:00:00 18,7 16,1 14 8 19 10 WSW 1015,9 10 0,0
18.09.2018 10:00:00 17,9 16,4 16 8 25 14 WSW 1015,4 - 0,0
18.09.2018 09:00:00 17,5 16,4 13 7 23 12 WSW 1014,7 - 0,0
18.09.2018 08:00:00 17,4 16,6 15 8 19 10 SSW 1013,9 7 0,0
18.09.2018 07:00:00 17,7 16,6 12 7 26 14 W 1013,2 - 0,0
18.09.2018 06:00:00 18,1 17,3 21 11 41 22 W 1012,9 - 0,0
18.09.2018 05:00:00 18,6 17,3 29 16 43 23 WSW 1012,6 - 0,0
18.09.2018 04:00:00 18,2 17,0 21 12 41 22 WSW 1013,0 - 0,0
18.09.2018 03:00:00 18,3 17,3 26 14 41 22 SW 1013,0 - 0,0
18.09.2018 02:00:00 18,0 17,0 19 11 32 18 SW 1012,8 - 0,0
18.09.2018 01:00:00 18,3 17,0 20 11 42 23 WSW 1012,7 - 0,0
18.09.2018 00:00:00 18,3 17,0 21 11 35 19 WSW 1012,5 - 0,0
17.09.2018 23:00:00 18,2 17,4 20 11 29 15 SW 1012,4 - 0,0
17.09.2018 22:00:00 18,6 17,4 19 10 24 13 SSW 1012,3 - 0,0
17.09.2018 21:00:00 18,8 17,3 20 11 27 14 SSW 1012,1 - 0,0
17.09.2018 20:00:00 18,9 17,0 18 10 29 16 SSW 1012,0 15 0,0
17.09.2018 19:00:00 19,3 17,1 21 11 31 17 SSW 1012,2 - 0,0
17.09.2018 18:00:00 18,8 16,6 16 8 23 12 SSE 1012,8 - 0,0
17.09.2018 17:00:00 19,6 16,1 13 7 27 15 ESE 1013,3 - 0,0
17.09.2018 16:00:00 19,5 14,9 18 10 30 16 ESE 1013,8 - 0,0
17.09.2018 15:00:00 19,4 14,0 17 9 30 16 ESE 1014,3 - 0,0
17.09.2018 14:00:00 19,3 13,9 13 7 28 15 E 1014,8 18 0,0
17.09.2018 13:00:00 18,8 13,9 13 7 28 15 E 1015,7 - 0,0
17.09.2018 12:00:00 18,3 13,4 13 7 29 16 E 1016,0 - 0,0
17.09.2018 11:00:00 16,9 13,2 13 7 25 14 E 1016,5 12 0,0
17.09.2018 10:00:00 15,3 14,7 14 8 28 15 E 1016,7 - 0,0
17.09.2018 09:00:00 14,7 14,2 14 8 29 16 E 1017,3 - 0,0
17.09.2018 08:00:00 14,9 14,4 16 8 25 13 E 1017,7 0,9 0,0
17.09.2018 07:00:00 14,7 14,2 14 8 20 11 E 1018,0 - 0,0
17.09.2018 06:00:00 14,4 13,8 11 6 14 7 NE 1018,5 - 0,0
17.09.2018 05:00:00 14,7 14,1 0 0 6 3 N 1018,7 - 0,0
17.09.2018 04:00:00 14,6 13,6 2 1 7 4 E 1018,9 - 0,0
17.09.2018 03:00:00 14,8 13,8 3 2 5 3 WSW 1020,1 - 0,0

tt = Température de l'air
td = dewpoint
ff = Vitesse du vent
fx = gusts
dd = Direction du vent
ppp = reduced air pressure
vv = visibility
rr = Quantités de précipitations

stations d'obs. à proximité